SWA1642 KLAX-KSMF

Flight info

Callsign SWA1642
Flight time 1h 0m
Altitude 36000
Route LADYJ4 CSTRO NURAY SUUTR4
Aircraft B738/M-SDE2E3FGHIRWXY/LB1

Departure

Time 2026-05-08 15:26
Airport Los Angeles International Airport (KLAX)

Arrival

Time 2026-05-08 16:26
Airport Sacramento International Airport (KSMF)
Time Latitude Longitude Altitude Speed Heading
2026-05-08 15:00 33.94732 -118.40071 115 ft 0 kts 263°
2026-05-08 15:20 33.94733 -118.40065 115 ft 2 kts 263°
2026-05-08 15:20 33.94735 -118.40047 115 ft 2 kts 279°
2026-05-08 15:20 33.94729 -118.40031 114 ft 2 kts 313°
2026-05-08 15:20 33.94716 -118.40020 114 ft 2 kts 345°
2026-05-08 15:21 33.94708 -118.40018 114 ft 1 kts
2026-05-08 15:21 33.94703 -118.40019 114 ft 0 kts 359°
2026-05-08 15:23 33.94704 -118.40019 114 ft 1 kts 359°
2026-05-08 15:23 33.94741 -118.40018 114 ft 9 kts
2026-05-08 15:23 33.94807 -118.40012 114 ft 9 kts 356°
2026-05-08 15:23 33.94846 -118.40054 114 ft 7 kts 284°
2026-05-08 15:24 33.94891 -118.40086 115 ft 9 kts
2026-05-08 15:24 33.94924 -118.40015 114 ft 11 kts 83°
2026-05-08 15:24 33.94959 -118.39928 113 ft 12 kts 32°
2026-05-08 15:24 33.95039 -118.39954 112 ft 12 kts 293°
2026-05-08 15:25 33.95032 -118.40059 114 ft 15 kts 263°
2026-05-08 15:25 33.94994 -118.40414 118 ft 81 kts 263°
2026-05-08 15:25 33.94896 -118.41377 123 ft 151 kts 263°
2026-05-08 15:25 33.94755 -118.42809 535 ft 177 kts 263°
2026-05-08 15:26 33.94624 -118.44270 1332 ft 182 kts 265°
2026-05-08 15:26 33.94489 -118.45844 1783 ft 201 kts 265°
2026-05-08 15:26 33.94360 -118.47604 2340 ft 215 kts 268°
2026-05-08 15:26 33.94298 -118.49407 2999 ft 225 kts 270°
2026-05-08 15:27 33.94237 -118.51336 3602 ft 239 kts 268°
2026-05-08 15:27 33.94098 -118.53402 4242 ft 253 kts 266°
2026-05-08 15:27 33.93919 -118.55537 4930 ft 263 kts 266°
2026-05-08 15:27 33.93739 -118.57717 5740 ft 267 kts 266°
2026-05-08 15:28 33.93578 -118.59936 6659 ft 267 kts 269°
2026-05-08 15:28 33.93734 -118.62128 7429 ft 269 kts 288°
2026-05-08 15:28 33.94658 -118.64123 7887 ft 277 kts 313°
2026-05-08 15:28 33.96174 -118.65538 8012 ft 283 kts 328°
2026-05-08 15:29 33.97882 -118.66715 8821 ft 284 kts 332°
2026-05-08 15:29 33.99719 -118.67600 9601 ft 287 kts 347°
2026-05-08 15:29 34.01729 -118.67791 10266 ft 293 kts
2026-05-08 15:29 34.03797 -118.67630 10725 ft 308 kts
2026-05-08 15:30 34.05980 -118.67403 11152 ft 324 kts
2026-05-08 15:30 34.08289 -118.67078 11522 ft 340 kts
2026-05-08 15:30 34.10659 -118.66559 11950 ft 354 kts 11°
2026-05-08 15:30 34.13113 -118.65972 12617 ft 360 kts 11°
2026-05-08 15:31 34.15579 -118.65372 13330 ft 364 kts 11°
2026-05-08 15:31 34.18053 -118.64772 14042 ft 368 kts 11°
2026-05-08 15:31 34.20580 -118.64175 14782 ft 371 kts 10°
2026-05-08 15:31 34.23121 -118.63726 15547 ft 373 kts
2026-05-08 15:32 34.25728 -118.63666 16269 ft 376 kts 356°
2026-05-08 15:32 34.28345 -118.64006 16957 ft 380 kts 351°
2026-05-08 15:32 34.30958 -118.64551 17639 ft 383 kts 349°
2026-05-08 15:32 34.33581 -118.65183 18288 ft 387 kts 348°
2026-05-08 15:33 34.36198 -118.65834 18908 ft 391 kts 348°
2026-05-08 15:33 34.38887 -118.66494 19534 ft 395 kts 348°
2026-05-08 15:33 34.41599 -118.67141 20197 ft 398 kts 349°
2026-05-08 15:33 34.44304 -118.67758 20808 ft 401 kts 349°
2026-05-08 15:34 34.47095 -118.68337 21359 ft 405 kts 351°
2026-05-08 15:34 34.49892 -118.68882 21992 ft 407 kts 351°
2026-05-08 15:34 34.52674 -118.69413 22563 ft 411 kts 351°
2026-05-08 15:34 34.55519 -118.69954 23124 ft 415 kts 351°
2026-05-08 15:35 34.58388 -118.70501 23654 ft 419 kts 351°
2026-05-08 15:35 34.61261 -118.71053 24218 ft 422 kts 351°
2026-05-08 15:35 34.64177 -118.71616 24820 ft 425 kts 351°
2026-05-08 15:35 34.67092 -118.72199 25358 ft 428 kts 349°
2026-05-08 15:36 34.70031 -118.72969 25879 ft 432 kts 345°
2026-05-08 15:36 34.72903 -118.74104 26399 ft 435 kts 338°
2026-05-08 15:36 34.75653 -118.75598 26937 ft 437 kts 334°
2026-05-08 15:36 34.78369 -118.77315 27422 ft 440 kts 331°
2026-05-08 15:37 34.81030 -118.79117 27955 ft 442 kts 330°
2026-05-08 15:37 34.83713 -118.80987 28480 ft 444 kts 330°
2026-05-08 15:37 34.86367 -118.82855 28936 ft 447 kts 330°
2026-05-08 15:37 34.89099 -118.84775 29380 ft 451 kts 330°
2026-05-08 15:38 34.91803 -118.86669 29837 ft 453 kts 330°
2026-05-08 15:38 34.94567 -118.88598 30227 ft 457 kts 330°
2026-05-08 15:38 34.97299 -118.90496 30774 ft 457 kts 330°
2026-05-08 15:38 35.00076 -118.92422 31476 ft 453 kts 330°
2026-05-08 15:39 35.02776 -118.94292 32031 ft 452 kts 330°
2026-05-08 15:39 35.05524 -118.96194 32542 ft 452 kts 330°
2026-05-08 15:39 35.08246 -118.98077 33087 ft 450 kts 330°
2026-05-08 15:39 35.10951 -118.99950 33642 ft 448 kts 330°
2026-05-08 15:40 35.13633 -119.01808 34201 ft 446 kts 330°
2026-05-08 15:40 35.16318 -119.03669 34845 ft 442 kts 330°
2026-05-08 15:40 35.18983 -119.05518 35441 ft 439 kts 330°
2026-05-08 15:40 35.21646 -119.07366 36006 ft 436 kts 330°
2026-05-08 15:41 35.27010 -119.11093 36091 ft 447 kts 330°
2026-05-08 15:41 35.32425 -119.14861 36093 ft 444 kts 330°
2026-05-08 15:42 35.37824 -119.18624 36088 ft 444 kts 330°
2026-05-08 15:42 35.43237 -119.22402 36083 ft 444 kts 330°
2026-05-08 15:43 35.48692 -119.25869 36081 ft 443 kts 335°
2026-05-08 15:43 35.54313 -119.28990 36077 ft 443 kts 336°
2026-05-08 15:44 35.59941 -119.32053 36074 ft 441 kts 336°
2026-05-08 15:44 35.65527 -119.35122 36075 ft 442 kts 336°
2026-05-08 15:45 35.71119 -119.38226 36072 ft 439 kts 336°
2026-05-08 15:45 35.76686 -119.41338 36065 ft 440 kts 336°
2026-05-08 15:46 35.82266 -119.44471 36061 ft 440 kts 335°
2026-05-08 15:46 35.87812 -119.47593 36058 ft 441 kts 335°
2026-05-08 15:47 35.93360 -119.50721 36055 ft 438 kts 336°
2026-05-08 15:47 35.98920 -119.53862 36054 ft 440 kts 335°
2026-05-08 15:48 36.07219 -119.58559 36055 ft 438 kts 335°
2026-05-08 15:49 36.12779 -119.61714 36061 ft 437 kts 335°
2026-05-08 15:49 36.18287 -119.64844 36063 ft 438 kts 336°
2026-05-08 15:50 36.23811 -119.67986 36064 ft 437 kts 335°
2026-05-08 15:50 36.29346 -119.71139 36070 ft 436 kts 335°
2026-05-08 15:51 36.34851 -119.74279 36065 ft 436 kts 335°
2026-05-08 15:51 36.40371 -119.77432 36068 ft 436 kts 335°
2026-05-08 15:52 36.45855 -119.80571 36065 ft 434 kts 335°
2026-05-08 15:52 36.51326 -119.83707 36067 ft 434 kts 335°
2026-05-08 15:53 36.56833 -119.86869 36069 ft 435 kts 335°
2026-05-08 15:53 36.62306 -119.90016 36068 ft 433 kts 335°
2026-05-08 15:54 36.67757 -119.93155 36070 ft 433 kts 335°
2026-05-08 15:54 36.73210 -119.96300 36068 ft 432 kts 335°
2026-05-08 15:55 36.78688 -119.99464 36068 ft 432 kts 335°
2026-05-08 15:55 36.86851 -120.04188 36070 ft 432 kts 335°
2026-05-08 15:56 36.92321 -120.07359 36068 ft 432 kts 335°
2026-05-08 15:56 36.97700 -120.10484 35994 ft 419 kts 335°
2026-05-08 15:57 37.00315 -120.12006 35664 ft 411 kts 335°
2026-05-08 15:57 37.02905 -120.13514 35148 ft 407 kts 335°
2026-05-08 15:57 37.05451 -120.14999 34518 ft 405 kts 335°
2026-05-08 15:57 37.08009 -120.16489 33799 ft 406 kts 335°
2026-05-08 15:58 37.10550 -120.17972 33124 ft 407 kts 335°
2026-05-08 15:58 37.13116 -120.19469 32413 ft 409 kts 334°
2026-05-08 15:58 37.15695 -120.20977 31672 ft 411 kts 334°
2026-05-08 15:58 37.18283 -120.22491 31038 ft 412 kts 334°
2026-05-08 15:59 37.20912 -120.24030 30501 ft 424 kts 334°
2026-05-08 15:59 37.23614 -120.25613 29894 ft 433 kts 334°
2026-05-08 15:59 37.26350 -120.27216 29259 ft 439 kts 334°
2026-05-08 15:59 37.29122 -120.28841 28625 ft 443 kts 334°
2026-05-08 16:00 37.31934 -120.30491 27977 ft 445 kts 334°
2026-05-08 16:00 37.34710 -120.32120 27340 ft 441 kts 334°
2026-05-08 16:00 37.37446 -120.33727 26706 ft 429 kts 334°
2026-05-08 16:00 37.40113 -120.35293 26097 ft 418 kts 334°
2026-05-08 16:01 37.42704 -120.36816 25488 ft 407 kts 334°
2026-05-08 16:01 37.45224 -120.38390 24876 ft 397 kts 330°
2026-05-08 16:01 37.47550 -120.40138 24337 ft 392 kts 326°
2026-05-08 16:01 37.49759 -120.42097 23799 ft 389 kts 322°
2026-05-08 16:02 37.51893 -120.44157 23243 ft 386 kts 321°
2026-05-08 16:02 37.53995 -120.46265 22685 ft 383 kts 320°
2026-05-08 16:02 37.56041 -120.48346 22134 ft 381 kts 320°
2026-05-08 16:02 37.58095 -120.50440 21563 ft 379 kts 320°
2026-05-08 16:03 37.60123 -120.52502 21150 ft 372 kts 320°
2026-05-08 16:03 37.62141 -120.54543 21087 ft 365 kts 320°
2026-05-08 16:03 37.64116 -120.56533 21088 ft 372 kts 320°
2026-05-08 16:03 37.66166 -120.58594 21058 ft 376 kts 320°
2026-05-08 16:04 37.68217 -120.60656 20721 ft 377 kts 320°
2026-05-08 16:04 37.70267 -120.62715 20086 ft 377 kts 320°
2026-05-08 16:04 37.72289 -120.64746 19519 ft 376 kts 320°
2026-05-08 16:04 37.74316 -120.66784 19135 ft 368 kts 320°
2026-05-08 16:05 37.76298 -120.68775 19068 ft 357 kts 320°
2026-05-08 16:05 37.78248 -120.70740 18873 ft 364 kts 320°
2026-05-08 16:05 37.80211 -120.72720 18557 ft 365 kts 320°
2026-05-08 16:05 37.82203 -120.74731 18068 ft 362 kts 320°
2026-05-08 16:06 37.84162 -120.76708 17484 ft 362 kts 320°
2026-05-08 16:06 37.86112 -120.78676 17062 ft 356 kts 320°
2026-05-08 16:06 37.88027 -120.80614 16983 ft 348 kts 319°
2026-05-08 16:06 37.89907 -120.82523 17000 ft 354 kts 319°
2026-05-08 16:07 37.91843 -120.84495 16914 ft 357 kts 319°
2026-05-08 16:07 37.93784 -120.86472 16433 ft 357 kts 319°
2026-05-08 16:07 37.95719 -120.88442 15924 ft 356 kts 319°
2026-05-08 16:07 37.97628 -120.90386 15330 ft 355 kts 319°
2026-05-08 16:08 37.99546 -120.92342 14787 ft 353 kts 319°
2026-05-08 16:08 38.01449 -120.94281 14253 ft 350 kts 319°
2026-05-08 16:08 38.03334 -120.96204 13713 ft 349 kts 319°
2026-05-08 16:08 38.05208 -120.98119 13166 ft 347 kts 319°
2026-05-08 16:09 38.07061 -121.00047 12608 ft 344 kts 316°
2026-05-08 16:09 38.08750 -121.02173 12105 ft 341 kts 311°
2026-05-08 16:09 38.10313 -121.04419 11562 ft 339 kts 309°
2026-05-08 16:09 38.11835 -121.06719 11037 ft 337 kts 308°
2026-05-08 16:10 38.13324 -121.08987 10539 ft 333 kts 309°
2026-05-08 16:10 38.14794 -121.11204 10320 ft 321 kts 309°
2026-05-08 16:10 38.16188 -121.13286 10233 ft 306 kts 309°
2026-05-08 16:10 38.17548 -121.15304 10107 ft 294 kts 309°
2026-05-08 16:11 38.18863 -121.17250 9779 ft 290 kts 310°
2026-05-08 16:11 38.20175 -121.19186 9383 ft 288 kts 310°
2026-05-08 16:11 38.21491 -121.21122 9037 ft 285 kts 310°
2026-05-08 16:11 38.22793 -121.22904 8975 ft 273 kts 314°
2026-05-08 16:12 38.24142 -121.24594 8979 ft 272 kts 315°
2026-05-08 16:12 38.25499 -121.26263 8974 ft 274 kts 315°
2026-05-08 16:12 38.26864 -121.27955 8985 ft 272 kts 314°
2026-05-08 16:12 38.28219 -121.29658 8985 ft 272 kts 314°
2026-05-08 16:13 38.29551 -121.31346 8979 ft 272 kts 314°
2026-05-08 16:13 38.30893 -121.33045 8982 ft 272 kts 314°
2026-05-08 16:13 38.32231 -121.34741 9010 ft 272 kts 314°
2026-05-08 16:13 38.33570 -121.36439 9003 ft 272 kts 314°
2026-05-08 16:14 38.34922 -121.38155 8987 ft 271 kts 314°
2026-05-08 16:14 38.36253 -121.39846 8984 ft 271 kts 314°
2026-05-08 16:14 38.37589 -121.41545 8986 ft 271 kts 314°
2026-05-08 16:14 38.38916 -121.43233 8984 ft 270 kts 314°
2026-05-08 16:15 38.40243 -121.44923 8986 ft 271 kts 314°
2026-05-08 16:15 38.41569 -121.46612 8984 ft 270 kts 314°
2026-05-08 16:15 38.42914 -121.48324 8983 ft 270 kts 314°
2026-05-08 16:15 38.44242 -121.50016 8928 ft 272 kts 314°
2026-05-08 16:16 38.45580 -121.51723 8670 ft 273 kts 314°
2026-05-08 16:16 38.46920 -121.53430 8318 ft 271 kts 315°
2026-05-08 16:16 38.48306 -121.55039 7980 ft 269 kts 319°
2026-05-08 16:16 38.49749 -121.56525 7640 ft 267 kts 322°
2026-05-08 16:17 38.51233 -121.57973 7298 ft 265 kts 322°
2026-05-08 16:17 38.52199 -121.58917 7075 ft 264 kts 322°
2026-05-08 16:17 38.54128 -121.60835 6632 ft 261 kts 321°
2026-05-08 16:17 38.55533 -121.62247 6304 ft 259 kts 321°
2026-05-08 16:18 38.56956 -121.63683 5977 ft 259 kts 321°
2026-05-08 16:18 38.58418 -121.65012 5648 ft 258 kts 330°
2026-05-08 16:18 38.60057 -121.65871 5326 ft 256 kts 342°
2026-05-08 16:18 38.61780 -121.66460 4998 ft 253 kts 345°
2026-05-08 16:19 38.63469 -121.67021 4677 ft 249 kts 344°
2026-05-08 16:19 38.65109 -121.67612 4370 ft 245 kts 343°
2026-05-08 16:19 38.66722 -121.68224 4202 ft 236 kts 343°
2026-05-08 16:19 38.68263 -121.68819 4134 ft 223 kts 343°
2026-05-08 16:20 38.69717 -121.69380 4072 ft 219 kts 343°
2026-05-08 16:20 38.71194 -121.69950 3990 ft 220 kts 343°
2026-05-08 16:20 38.72684 -121.70287 3951 ft 217 kts
2026-05-08 16:20 38.74192 -121.70126 3944 ft 219 kts
2026-05-08 16:21 38.75737 -121.69940 3721 ft 222 kts
2026-05-08 16:21 38.77283 -121.69839 3424 ft 221 kts
2026-05-08 16:21 38.78805 -121.69788 3130 ft 220 kts
2026-05-08 16:21 38.80341 -121.69752 2835 ft 218 kts
2026-05-08 16:22 38.81835 -121.69611 2534 ft 215 kts 15°
2026-05-08 16:22 38.83045 -121.68571 2291 ft 209 kts 52°
2026-05-08 16:22 38.83649 -121.66929 2114 ft 200 kts 75°
2026-05-08 16:22 38.83831 -121.65196 1934 ft 193 kts 89°
2026-05-08 16:23 38.83517 -121.63594 1790 ft 186 kts 119°
2026-05-08 16:23 38.82665 -121.62358 1783 ft 186 kts 138°
2026-05-08 16:23 38.81625 -121.61407 1780 ft 188 kts 147°
2026-05-08 16:23 38.80474 -121.60537 1776 ft 187 kts 149°
2026-05-08 16:24 38.79256 -121.60032 1753 ft 184 kts 174°
2026-05-08 16:24 38.78003 -121.59981 1496 ft 175 kts 179°
2026-05-08 16:24 38.76817 -121.60006 1260 ft 162 kts 181°
2026-05-08 16:24 38.75725 -121.60033 1026 ft 151 kts 180°
2026-05-08 16:25 38.74701 -121.60046 838 ft 147 kts 179°
2026-05-08 16:25 38.73670 -121.60055 640 ft 146 kts 180°
2026-05-08 16:25 38.72662 -121.60081 445 ft 145 kts 180°
2026-05-08 16:25 38.71648 -121.60103 267 ft 146 kts 178°
2026-05-08 16:26 38.70625 -121.60112 67 ft 149 kts 179°
2026-05-08 16:26 38.69626 -121.60129 26 ft 133 kts 180°
2026-05-08 16:26 38.68970 -121.60136 25 ft 56 kts 180°
2026-05-08 16:26 38.68670 -121.60143 25 ft 30 kts 181°
2026-05-08 16:27 38.68488 -121.60143 25 ft 21 kts 180°
2026-05-08 16:27 38.68386 -121.60068 25 ft 18 kts 93°
2026-05-08 16:27 38.68389 -121.59915 25 ft 14 kts 66°
2026-05-08 16:27 38.68481 -121.59884 24 ft 16 kts
2026-05-08 16:28 38.68626 -121.59882 25 ft 25 kts 360°
2026-05-08 16:28 38.68822 -121.59878 27 ft 28 kts
2026-05-08 16:28 38.69015 -121.59875 27 ft 27 kts 359°
2026-05-08 16:28 38.69201 -121.59872 27 ft 26 kts
2026-05-08 16:29 38.69379 -121.59867 27 ft 24 kts
2026-05-08 16:29 38.69471 -121.59819 28 ft 12 kts 83°
2026-05-08 16:29 38.69463 -121.59701 28 ft 15 kts 92°
2026-05-08 16:29 38.69464 -121.59571 28 ft 13 kts 78°
2026-05-08 16:30 38.69505 -121.59522 28 ft 7 kts 46°
2026-05-08 16:30 38.69512 -121.59512 28 ft 0 kts 46°